TimeMDT,TemperatureF,Dew PointF,Humidity,Sea Level PressureIn,VisibilityMPH,Wind Direction,Wind SpeedMPH,Gust SpeedMPH,PrecipitationIn,Events,Conditions,WindDirDegrees,DateUTC
12:00 AM,29,,,30.11,1,WNW,8.1,,,,,300,2013-07-15 06:00:00
12:00 AM,28.4,-9999,N/A,30.11,1.1,WNW,6.9,-,N/A,,Clear,300,2013-07-15 06:00:00
12:04 AM,28.4,-9999,N/A,30.08,1.0,WNW,6.9,-,N/A,,Clear,300,2013-07-15 06:04:00
12:09 AM,28.4,-9999,N/A,30.08,0.6,NW,6.9,-,N/A,,Clear,310,2013-07-15 06:09:00
12:12 AM,28.4,-9999,N/A,30.08,0.5,WNW,9.2,-,N/A,,Clear,300,2013-07-15 06:12:00
12:13 AM,28.4,-9999,N/A,30.08,0.4,WNW,10.4,-,N/A,,Clear,300,2013-07-15 06:13:00
12:25 AM,28.4,-9999,N/A,30.08,0.2,NW,9.2,-,N/A,,Clear,310,2013-07-15 06:25:00
12:36 AM,28.4,-9999,N/A,30.09,0.8,WNW,5.8,-,N/A,,Clear,300,2013-07-15 06:36:00
12:47 AM,28.4,-9999,N/A,30.08,1.5,WNW,9.2,-,N/A,,Clear,300,2013-07-15 06:47:00
12:51 AM,28.4,-9999,N/A,30.08,1.4,WNW,6.9,-,N/A,,Clear,300,2013-07-15 06:51:00
12:55 AM,28.4,-9999,N/A,30.09,1.0,NW,6.9,-,N/A,,Clear,310,2013-07-15 06:55:00
12:57 AM,28.4,-9999,N/A,30.09,0.6,NW,5.8,-,N/A,,Clear,310,2013-07-15 06:57:00
12:59 AM,28.4,-9999,N/A,30.09,0.4,WNW,9.2,-,N/A,,Clear,300,2013-07-15 06:59:00
1:00 AM,28.4,-9999,N/A,30.12,0.4,WNW,10.4,-,N/A,,Clear,300,2013-07-15 07:00:00
1:05 AM,28.4,-9999,N/A,30.09,0.1,WNW,6.9,-,N/A,,Clear,300,2013-07-15 07:05:00
2:00 AM,28.4,-9999,N/A,30.13,0.1,NW,6.9,-,N/A,,Clear,320,2013-07-15 08:00:00
2:43 AM,28.4,-9999,N/A,30.10,0.1,NW,4.6,-,N/A,,Light Freezing Drizzle,310,2013-07-15 08:43:00
3:00 AM,29,,,30.13,0,NW,13.4,,,,,320,2013-07-15 09:00:00
3:00 AM,28.4,-9999,N/A,30.13,0.1,NW,6.9,-,N/A,,Light Freezing Drizzle,320,2013-07-15 09:00:00
3:04 AM,28.4,-9999,N/A,30.10,0.1,NW,6.9,-,N/A,,Clear,320,2013-07-15 09:04:00
3:13 AM,28.4,-9999,N/A,30.10,0.1,NW,6.9,-,N/A,,Light Freezing Drizzle,320,2013-07-15 09:13:00
3:15 AM,28.4,-9999,N/A,30.10,0.1,NW,10.4,-,N/A,,Clear,320,2013-07-15 09:15:00
3:32 AM,28.4,-9999,N/A,30.10,0.5,NW,9.2,-,N/A,,Clear,320,2013-07-15 09:32:00
3:35 AM,28.4,-9999,N/A,30.11,1.0,NW,6.9,-,N/A,,Clear,320,2013-07-15 09:35:00
3:46 AM,28.4,-9999,N/A,30.11,3.0,NW,3.5,-,N/A,,Clear,310,2013-07-15 09:46:00
4:00 AM,28.4,-9999,N/A,30.13,9.0,WNW,9.2,-,N/A,,Clear,300,2013-07-15 10:00:00
4:07 AM,28.4,-9999,N/A,30.12,9.0,WNW,6.9,-,N/A,,Overcast,300,2013-07-15 10:07:00
4:12 AM,28.4,-9999,N/A,30.12,9.0,WNW,10.4,-,N/A,,Overcast,300,2013-07-15 10:12:00
4:16 AM,28.4,-9999,N/A,30.12,9.0,WNW,9.2,-,N/A,,Overcast,300,2013-07-15 10:16:00
4:18 AM,28.4,-9999,N/A,30.12,9.0,WNW,10.4,-,N/A,,Overcast,300,2013-07-15 10:18:00
5:00 AM,28.4,-9999,N/A,30.15,9.0,WNW,5.8,-,N/A,,Overcast,300,2013-07-15 11:00:00
6:00 AM,29,,,30.17,9,WNW,4.6,,,,,300,2013-07-15 12:00:00
6:00 AM,30.2,-9999,N/A,30.17,9.0,WNW,4.6,-,N/A,,Clear,300,2013-07-15 12:00:00
7:00 AM,30.2,-9999,N/A,30.19,9.0,NW,3.5,-,N/A,,Clear,310,2013-07-15 13:00:00
7:37 AM,30.2,-9999,N/A,30.16,2.5,NW,3.5,-,N/A,,Clear,310,2013-07-15 13:37:00
7:51 AM,30.2,-9999,N/A,30.16,1.4,NW,3.5,-,N/A,,Clear,310,2013-07-15 13:51:00
7:58 AM,30.2,-9999,N/A,30.17,1.0,NW,3.5,-,N/A,,Clear,310,2013-07-15 13:58:00
8:00 AM,30.2,-9999,N/A,30.20,0.8,WNW,5.8,-,N/A,,Clear,300,2013-07-15 14:00:00
8:09 AM,30.2,-9999,N/A,30.17,0.6,NW,2.3,-,N/A,,Clear,310,2013-07-15 14:09:00
8:59 AM,30.2,-9999,N/A,30.16,0.8,NW,2.3,-,N/A,,Clear,320,2013-07-15 14:59:00
9:00 AM,30,,,30.19,1,NW,4.5,,,,,320,2013-07-15 15:00:00
9:00 AM,30.2,-9999,N/A,30.19,0.8,NW,2.3,-,N/A,,Clear,320,2013-07-15 15:00:00
9:04 AM,30.2,-9999,N/A,30.17,0.6,WNW,3.5,-,N/A,,Clear,300,2013-07-15 15:04:00
9:24 AM,30.2,-9999,N/A,30.17,1.0,NW,2.3,-,N/A,,Clear,320,2013-07-15 15:24:00
9:27 AM,30.2,-9999,N/A,30.17,1.0,NW,3.5,-,N/A,,Clear,320,2013-07-15 15:27:00
9:32 AM,30.2,-9999,N/A,30.17,0.6,NW,4.6,-,N/A,,Clear,320,2013-07-15 15:32:00
9:59 AM,30.2,-9999,N/A,30.17,1.0,NW,4.6,-,N/A,,Clear,320,2013-07-15 15:59:00
10:00 AM,30.2,-9999,N/A,30.20,1.1,NW,4.6,-,N/A,,Clear,320,2013-07-15 16:00:00
10:05 AM,30.2,-9999,N/A,30.17,1.0,NW,4.6,-,N/A,,Clear,320,2013-07-15 16:05:00
10:29 AM,30.2,-9999,N/A,30.17,1.1,NW,4.6,-,N/A,,Clear,320,2013-07-15 16:29:00
10:43 AM,30.2,-9999,N/A,30.19,1.6,NW,2.3,-,N/A,,Clear,310,2013-07-15 16:43:00
10:55 AM,30.2,-9999,N/A,30.19,1.2,NW,3.5,-,N/A,,Clear,320,2013-07-15 16:55:00
11:00 AM,30.2,-9999,N/A,30.21,1.0,NW,2.3,-,N/A,,Clear,310,2013-07-15 17:00:00
11:48 AM,30.2,-9999,N/A,30.20,1.0,NW,4.6,-,N/A,,Overcast,310,2013-07-15 17:48:00
11:59 AM,32.0,-9999,N/A,30.19,1.2,WNW,3.5,-,N/A,,Overcast,300,2013-07-15 17:59:00
12:00 PM,31,,,30.22,1,NW,3.5,,,,Overcast,310,2013-07-15 18:00:00
12:00 PM,32.0,-9999,N/A,30.22,1.4,WNW,4.6,-,N/A,,Overcast,300,2013-07-15 18:00:00
12:09 PM,32.0,-9999,N/A,30.19,1.5,WNW,5.8,-,N/A,,Overcast,300,2013-07-15 18:09:00
12:10 PM,32.0,-9999,N/A,30.19,1.4,WNW,6.9,-,N/A,,Overcast,300,2013-07-15 18:10:00
12:13 PM,32.0,-9999,N/A,30.19,1.0,WNW,5.8,-,N/A,,Overcast,300,2013-07-15 18:13:00
12:16 PM,32.0,-9999,N/A,30.19,0.6,WNW,6.9,-,N/A,,Overcast,300,2013-07-15 18:16:00
12:39 PM,32.0,-9999,N/A,30.19,0.8,WNW,4.6,-,N/A,,Overcast,300,2013-07-15 18:39:00
12:52 PM,32.0,-9999,N/A,30.20,1.1,WNW,4.6,-,N/A,,Overcast,300,2013-07-15 18:52:00
1:00 PM,32.0,-9999,N/A,30.23,1.0,WNW,4.6,-,N/A,,Overcast,300,2013-07-15 19:00:00
1:03 PM,32.0,-9999,N/A,30.20,0.6,WNW,5.8,-,N/A,,Overcast,300,2013-07-15 19:03:00
1:23 PM,32.0,-9999,N/A,30.21,1.0,WNW,4.6,-,N/A,,Overcast,300,2013-07-15 19:23:00
1:55 PM,32.0,-9999,N/A,30.21,1.5,WNW,4.6,-,N/A,,Overcast,300,2013-07-15 19:55:00
1:56 PM,32.0,-9999,N/A,30.21,1.4,WNW,4.6,-,N/A,,Overcast,300,2013-07-15 19:56:00
2:00 PM,32.0,-9999,N/A,30.24,1.2,WNW,3.5,-,N/A,,Overcast,300,2013-07-15 20:00:00
2:30 PM,32.0,-9999,N/A,30.21,1.5,WNW,2.3,-,N/A,,Clear,300,2013-07-15 20:30:00
2:44 PM,32.0,-9999,N/A,30.20,1.1,NW,2.3,-,N/A,,Overcast,320,2013-07-15 20:44:00
2:47 PM,32.0,-9999,N/A,30.20,1.0,NW,2.3,-,N/A,,Overcast,310,2013-07-15 20:47:00
2:59 PM,32.0,-9999,N/A,30.22,1.0,Calm,Calm,-,N/A,,Overcast,0,2013-07-15 20:59:00
3:00 PM,32,,,30.25,1,Calm,Calm,,,,Overcast,,2013-07-15 21:00:00
3:00 PM,32.0,-9999,N/A,30.25,1.0,Calm,Calm,-,N/A,,Overcast,0,2013-07-15 21:00:00
3:26 PM,32.0,-9999,N/A,30.21,2.5,NW,2.3,-,N/A,,Overcast,320,2013-07-15 21:26:00
4:00 PM,32.0,-9999,N/A,30.26,1.5,NW,2.3,-,N/A,,Overcast,310,2013-07-15 22:00:00
4:13 PM,32.0,-9999,N/A,30.22,1.4,Calm,Calm,-,N/A,,Clear,0,2013-07-15 22:13:00
4:29 PM,32.0,-9999,N/A,30.22,1.0,NW,2.3,-,N/A,,Clear,310,2013-07-15 22:29:00
4:47 PM,32.0,-9999,N/A,30.21,1.1,Calm,Calm,-,N/A,,Overcast,0,2013-07-15 22:47:00
4:53 PM,32.0,-9999,N/A,30.21,1.0,Calm,Calm,-,N/A,,Overcast,0,2013-07-15 22:53:00
5:00 PM,32.0,-9999,N/A,30.24,1.0,Calm,Calm,-,N/A,,Overcast,0,2013-07-15 23:00:00
5:39 PM,32.0,-9999,N/A,30.21,0.6,Calm,Calm,-,N/A,,Overcast,0,2013-07-15 23:39:00
5:45 PM,32.0,-9999,N/A,30.21,1.0,NW,2.3,-,N/A,,Overcast,310,2013-07-15 23:45:00
6:00 PM,32,,,30.23,1,NW,3.5,,,,Overcast,320,2013-07-16 00:00:00
6:00 PM,32.0,-9999,N/A,30.23,1.1,NW,2.3,-,N/A,,Overcast,310,2013-07-16 00:00:00
6:17 PM,32.0,-9999,N/A,30.21,3.0,NNW,3.5,-,N/A,,Overcast,330,2013-07-16 00:17:00
6:51 PM,32.0,-9999,N/A,30.20,9.0,Calm,Calm,-,N/A,,Overcast,0,2013-07-16 00:51:00
6:54 PM,32.0,-9999,N/A,30.19,9.0,NW,2.3,-,N/A,,Overcast,310,2013-07-16 00:54:00
6:58 PM,32.0,-9999,N/A,30.19,9.0,Calm,Calm,-,N/A,,Overcast,0,2013-07-16 00:58:00
7:00 PM,32.0,-9999,N/A,30.22,9.0,Calm,Calm,-,N/A,,Overcast,0,2013-07-16 01:00:00
7:15 PM,32.0,-9999,N/A,30.20,2.8,Calm,Calm,-,N/A,,Overcast,0,2013-07-16 01:15:00
7:34 PM,32.0,-9999,N/A,30.19,8.0,Calm,Calm,-,N/A,,Clear,0,2013-07-16 01:34:00
7:47 PM,32.0,-9999,N/A,30.19,9.0,WNW,3.5,-,N/A,,Overcast,300,2013-07-16 01:47:00
7:48 PM,32.0,-9999,N/A,30.19,9.0,WNW,2.3,-,N/A,,Clear,300,2013-07-16 01:48:00
8:00 PM,30.2,-9999,N/A,30.22,6.0,Calm,Calm,-,N/A,,Overcast,0,2013-07-16 02:00:00
8:25 PM,32.0,-9999,N/A,30.18,9.0,WNW,4.6,-,N/A,,Overcast,300,2013-07-16 02:25:00
8:33 PM,30.2,-9999,N/A,30.18,9.0,West,5.8,-,N/A,,Mostly Cloudy,280,2013-07-16 02:33:00
8:38 PM,30.2,-9999,N/A,30.18,2.8,WNW,5.8,-,N/A,,Clear,290,2013-07-16 02:38:00
9:00 PM,31,,,30.21,2,WNW,11.2,,,,,290,2013-07-16 03:00:00
9:00 PM,30.2,-9999,N/A,30.21,1.8,WNW,6.9,-,N/A,,Clear,300,2013-07-16 03:00:00
9:10 PM,30.2,-9999,N/A,30.18,2.2,WNW,5.8,-,N/A,,Partly Cloudy,300,2013-07-16 03:10:00
9:12 PM,30.2,-9999,N/A,30.19,2.6,WNW,6.9,-,N/A,,Mostly Cloudy,300,2013-07-16 03:12:00
9:22 PM,30.2,-9999,N/A,30.19,6.0,WNW,6.9,-,N/A,,Overcast,300,2013-07-16 03:22:00
9:28 PM,30.2,-9999,N/A,30.18,5.0,WNW,5.8,-,N/A,,Clear,300,2013-07-16 03:28:00
9:29 PM,30.2,-9999,N/A,30.18,5.0,WNW,5.8,-,N/A,,Clear,300,2013-07-16 03:29:00
9:33 PM,30.2,-9999,N/A,30.18,2.6,WNW,5.8,-,N/A,,Overcast,300,2013-07-16 03:33:00
9:43 PM,30.2,-9999,N/A,30.19,1.4,WNW,6.9,-,N/A,,Clear,300,2013-07-16 03:43:00
9:46 PM,30.2,-9999,N/A,30.18,1.0,WNW,6.9,-,N/A,,Clear,290,2013-07-16 03:46:00
9:51 PM,30.2,-9999,N/A,30.18,0.6,WNW,5.8,-,N/A,,Clear,300,2013-07-16 03:51:00
9:58 PM,30.2,-9999,N/A,30.17,1.0,WNW,6.9,-,N/A,,Clear,300,2013-07-16 03:58:00
10:00 PM,30.2,-9999,N/A,30.20,1.0,WNW,6.9,-,N/A,,Clear,300,2013-07-16 04:00:00
10:10 PM,30.2,-9999,N/A,30.17,1.0,WNW,6.9,-,N/A,,Clear,300,2013-07-16 04:10:00
10:19 PM,30.2,-9999,N/A,30.17,1.5,NW,4.6,-,N/A,,Clear,310,2013-07-16 04:19:00
10:31 PM,30.2,-9999,N/A,30.16,7.0,WNW,4.6,-,N/A,,Clear,300,2013-07-16 04:31:00
10:51 PM,28.4,-9999,N/A,30.17,2.5,Calm,Calm,-,N/A,,Clear,0,2013-07-16 04:51:00
10:53 PM,28.4,-9999,N/A,30.17,2.1,NW,3.5,-,N/A,,Clear,320,2013-07-16 04:53:00
11:00 PM,28.4,-9999,N/A,30.19,1.5,NW,2.3,-,N/A,,Clear,310,2013-07-16 05:00:00
11:07 PM,30.2,-9999,N/A,30.16,2.5,NW,3.5,-,N/A,,Clear,320,2013-07-16 05:07:00
11:09 PM,30.2,-9999,N/A,30.16,2.5,NW,4.6,-,N/A,,Clear,320,2013-07-16 05:09:00
11:15 PM,30.2,-9999,N/A,30.16,1.2,NW,2.3,-,N/A,,Clear,320,2013-07-16 05:15:00
11:21 PM,28.4,-9999,N/A,30.17,1.0,NW,3.5,-,N/A,,Clear,320,2013-07-16 05:21:00
11:35 PM,28.4,-9999,N/A,30.16,1.0,NW,2.3,-,N/A,,Clear,310,2013-07-16 05:35:00
11:37 PM,28.4,-9999,N/A,30.16,1.0,NW,2.3,-,N/A,,Clear,320,2013-07-16 05:37:00
11:48 PM,28.4,-9999,N/A,30.17,1.0,WNW,4.6,-,N/A,,Clear,300,2013-07-16 05:48:00
11:49 PM,28.4,-9999,N/A,30.17,1.0,WNW,3.5,-,N/A,,Clear,300,2013-07-16 05:49:00
11:50 PM,28.4,-9999,N/A,30.17,1.0,WNW,2.3,-,N/A,,Clear,300,2013-07-16 05:50:00
11:51 PM,28.4,-9999,N/A,30.17,1.0,WNW,3.5,-,N/A,,Clear,300,2013-07-16 05:51:00